Date,TemperatureHighF,TemperatureAvgF,TemperatureLowF,DewpointHighF,DewpointAvgF,DewpointLowF,HumidityHigh,HumidityAvg,HumidityLow,PressureMaxIn,PressureMinIn,WindSpeedMaxMPH,WindSpeedAvgMPH,GustSpeedMaxMPH,PrecipitationSumIn
2013-8-1,78,70,65,68,65,62,97,86,57,29.92,29.76,7,2,15,0.42
2013-8-2,78,68,59,67,62,57,95,81,55,29.88,29.81,15,2,25,0.46
2013-8-3,76,68,60,63,60,57,96,77,53,29.95,29.82,6,1,15,0.46
2013-8-4,72,64,54,60,56,51,93,77,54,30.08,29.94,9,1,17,0.01
2013-8-5,74,62,52,59,54,50,94,77,53,30.12,30.01,5,0,10,0.00
2013-8-6,80,67,56,64,58,52,91,77,49,30.04,29.95,5,0,10,0.00
2013-8-7,82,73,65,72,66,61,89,79,69,29.96,29.83,9,2,18,0.00
2013-8-8,79,73,67,74,70,66,97,89,77,29.96,29.87,8,1,16,0.62
2013-8-9,79,70,64,69,65,61,97,85,57,29.93,29.87,7,2,12,0.32
2013-8-10,74,66,56,61,56,52,90,71,52,30.10,29.92,6,1,13,0.01
2013-8-11,76,64,53,61,56,51,94,75,52,30.14,30.02,7,1,12,0.01
2013-8-12,74,68,60,67,62,57,92,82,66,30.04,29.85,9,1,20,0.00
2013-8-13,69,64,57,67,57,-100,97,81,62,29.90,29.75,10,2,20,0.39
2013-8-14,70,59,54,55,48,-100,90,73,50,30.09,29.88,9,3,18,0.00
2013-8-15,59,57,56,51,50,50,81,79,74,30.11,30.09,1,0,3,0.00
2013-8-16,77,67,57,63,54,-100,92,70,55,30.20,30.15,4,0,10,0.00
2013-8-17,79,66,57,66,59,54,93,79,47,30.29,30.20,5,0,10,0.00
2013-8-18,80,68,60,67,59,-100,91,75,54,30.24,30.11,3,0,7,0.00
2013-8-19,81,67,63,66,50,-100,97,78,52,30.11,30.02,5,1,11,0.00
2013-8-20,81,71,64,70,64,-100,96,82,62,30.12,30.05,9,2,16,0.00
2013-8-21,84,74,65,71,66,62,93,80,58,30.15,30.01,6,1,15,0.00
2013-8-22,80,71,63,72,66,59,92,87,65,30.02,29.92,9,2,16,0.00
2013-8-23,74,65,56,62,57,53,97,77,54,30.20,30.00,3,0,10,0.00
2013-8-24,77,64,54,62,56,51,93,75,53,30.35,30.20,4,0,11,0.00
2013-8-25,81,68,56,64,56,-100,88,69,47,30.33,30.11,8,2,17,0.02
2013-8-26,78,72,70,72,69,65,96,90,78,30.16,29.93,9,3,17,0.58
2013-8-27,82,72,68,76,71,67,99,94,79,29.94,29.88,5,1,12,0.01
2013-8-28,77,77,77,74,74,74,89,89,89,29.86,29.86,0,0,1,0.00
2013-8-30,75,74,73,71,70,70,91,89,87,29.77,29.73,6,1,11,0.01
2013-8-31,79,73,68,73,70,67,96,89,79,29.85,29.70,9,2,19,0.01